Time,TemperatureF,DewpointF,PressureIn,WindDirection,WindDirectionDegrees,WindSpeedMPH,WindSpeedGustMPH,Humidity,HourlyPrecipIn,Conditions,Clouds,dailyrainin,SolarRadiationWatts/m^2,SoftwareType,DateUTC
2013-07-19 00:04:00,77.4,76.0,30.10,West,271,0.0,-999.0,94,-99.99,,,0.00,0,weatherlink.com 1.10,2013-07-19 04:04:00,
2013-07-19 00:19:00,77.3,76.0,30.10,West,271,0.0,-999.0,95,-99.99,,,0.00,0,weatherlink.com 1.10,2013-07-19 04:19:00,
2013-07-19 00:34:00,77.0,76.0,30.09,West,271,0.0,-999.0,95,-99.99,,,0.00,0,weatherlink.com 1.10,2013-07-19 04:34:00,
2013-07-19 00:49:00,76.8,75.0,30.10,West,271,0.0,-999.0,95,-99.99,,,0.00,0,weatherlink.com 1.10,2013-07-19 04:49:00,
2013-07-19 01:04:00,76.6,75.0,30.09,West,271,0.0,-999.0,95,-99.99,,,0.00,0,weatherlink.com 1.10,2013-07-19 05:04:00,
2013-07-19 01:19:00,76.5,75.0,30.09,West,271,0.0,-999.0,96,-99.99,,,0.00,0,weatherlink.com 1.10,2013-07-19 05:19:00,
2013-07-19 01:34:00,76.4,75.0,30.09,West,271,0.0,-999.0,96,-99.99,,,0.00,0,weatherlink.com 1.10,2013-07-19 05:34:00,
2013-07-19 01:49:00,76.3,75.0,30.09,West,271,0.0,-999.0,96,-99.99,,,0.00,0,weatherlink.com 1.10,2013-07-19 05:49:00,
2013-07-19 02:04:00,76.3,75.0,30.08,West,271,0.0,-999.0,96,-99.99,,,0.00,0,weatherlink.com 1.10,2013-07-19 06:04:00,
2013-07-19 02:19:00,76.2,75.0,30.08,West,271,0.0,-999.0,96,-99.99,,,0.00,0,weatherlink.com 1.10,2013-07-19 06:19:00,
2013-07-19 02:34:00,76.1,75.0,30.08,West,271,0.0,-999.0,97,-99.99,,,0.00,0,weatherlink.com 1.10,2013-07-19 06:34:00,
2013-07-19 02:49:00,75.9,75.0,30.07,West,271,0.0,-999.0,97,-99.99,,,0.00,0,weatherlink.com 1.10,2013-07-19 06:49:00,
2013-07-19 03:04:00,75.8,75.0,30.07,West,271,0.0,-999.0,97,-99.99,,,0.00,0,weatherlink.com 1.10,2013-07-19 07:04:00,
2013-07-19 03:19:00,75.7,75.0,30.07,West,271,0.0,-999.0,97,-99.99,,,0.00,0,weatherlink.com 1.10,2013-07-19 07:19:00,
2013-07-19 03:34:00,75.7,75.0,30.07,West,271,0.0,-999.0,97,-99.99,,,0.00,0,weatherlink.com 1.10,2013-07-19 07:34:00,
2013-07-19 03:49:00,75.6,75.0,30.07,West,271,0.0,-999.0,97,-99.99,,,0.00,0,weatherlink.com 1.10,2013-07-19 07:49:00,
2013-07-19 04:04:00,75.5,75.0,30.06,West,271,0.0,-999.0,97,-99.99,,,0.00,0,weatherlink.com 1.10,2013-07-19 08:04:00,
2013-07-19 04:19:00,75.3,74.0,30.06,West,271,0.0,-999.0,97,-99.99,,,0.00,0,weatherlink.com 1.10,2013-07-19 08:19:00,
2013-07-19 04:34:00,75.1,74.0,30.06,West,271,0.0,-999.0,97,-99.99,,,0.00,0,weatherlink.com 1.10,2013-07-19 08:34:00,
2013-07-19 04:49:00,74.8,74.0,30.06,West,271,0.0,-999.0,97,-99.99,,,0.00,0,weatherlink.com 1.10,2013-07-19 08:49:00,
2013-07-19 05:04:00,74.8,74.0,30.05,West,271,0.0,-999.0,97,-99.99,,,0.00,0,weatherlink.com 1.10,2013-07-19 09:04:00,
2013-07-19 05:19:00,74.6,74.0,30.06,West,271,0.0,-999.0,97,-99.99,,,0.00,0,weatherlink.com 1.10,2013-07-19 09:19:00,
2013-07-19 05:34:00,74.4,74.0,30.06,West,271,0.0,-999.0,97,-99.99,,,0.00,0,weatherlink.com 1.10,2013-07-19 09:34:00,
2013-07-19 05:49:00,74.3,73.0,30.06,West,271,0.0,-999.0,97,-99.99,,,0.00,0,weatherlink.com 1.10,2013-07-19 09:49:00,
2013-07-19 06:04:00,74.3,73.0,30.06,West,271,0.0,-999.0,97,-99.99,,,0.00,0,weatherlink.com 1.10,2013-07-19 10:04:00,
2013-07-19 06:19:00,74.2,73.0,30.06,West,271,0.0,-999.0,97,-99.99,,,0.00,0,weatherlink.com 1.10,2013-07-19 10:19:00,
2013-07-19 06:34:00,74.1,74.0,30.07,West,271,0.0,-999.0,98,-99.99,,,0.00,7,weatherlink.com 1.10,2013-07-19 10:34:00,
2013-07-19 06:49:00,74.2,74.0,30.07,West,271,0.0,-999.0,98,-99.99,,,0.00,12,weatherlink.com 1.10,2013-07-19 10:49:00,
2013-07-19 07:04:00,74.4,74.0,30.07,West,271,0.0,-999.0,98,-99.99,,,0.00,19,weatherlink.com 1.10,2013-07-19 11:04:00,
2013-07-19 07:19:00,74.5,74.0,30.07,West,271,0.0,-999.0,98,-99.99,,,0.00,25,weatherlink.com 1.10,2013-07-19 11:19:00,
2013-07-19 07:34:00,74.6,74.0,30.08,West,271,0.0,-999.0,98,-99.99,,,0.00,28,weatherlink.com 1.10,2013-07-19 11:34:00,
2013-07-19 07:49:00,74.8,74.0,30.08,West,271,0.0,-999.0,98,-99.99,,,0.00,33,weatherlink.com 1.10,2013-07-19 11:49:00,
2013-07-19 08:04:00,75.1,75.0,30.09,West,271,0.0,-999.0,98,-99.99,,,0.00,37,weatherlink.com 1.10,2013-07-19 12:04:00,
2013-07-19 08:19:00,75.3,75.0,30.09,West,271,0.0,-999.0,98,-99.99,,,0.00,39,weatherlink.com 1.10,2013-07-19 12:19:00,
2013-07-19 08:34:00,75.6,75.0,30.09,West,271,0.0,-999.0,98,-99.99,,,0.00,46,weatherlink.com 1.10,2013-07-19 12:34:00,
2013-07-19 08:49:00,75.8,75.0,30.09,West,271,0.0,-999.0,98,-99.99,,,0.00,49,weatherlink.com 1.10,2013-07-19 12:49:00,
2013-07-19 09:04:00,76.2,76.0,30.09,West,271,0.0,-999.0,98,-99.99,,,0.00,56,weatherlink.com 1.10,2013-07-19 13:04:00,
2013-07-19 09:19:00,76.6,76.0,30.10,West,271,0.0,-999.0,97,-99.99,,,0.00,60,weatherlink.com 1.10,2013-07-19 13:19:00,
2013-07-19 09:34:00,76.9,76.0,30.10,West,261,0.0,-999.0,96,-99.99,,,0.00,62,weatherlink.com 1.10,2013-07-19 13:34:00,
2013-07-19 09:49:00,77.4,76.0,30.10,West,279,0.0,-999.0,95,-99.99,,,0.00,67,weatherlink.com 1.10,2013-07-19 13:49:00,
2013-07-19 10:04:00,78.2,76.0,30.10,WNW,282,0.0,-999.0,93,-99.99,,,0.00,74,weatherlink.com 1.10,2013-07-19 14:04:00,
2013-07-19 10:19:00,79.2,76.0,30.09,West,272,0.0,-999.0,91,-99.99,,,0.00,76,weatherlink.com 1.10,2013-07-19 14:19:00,
2013-07-19 10:34:00,79.9,77.0,30.09,WNW,288,0.0,-999.0,89,-99.99,,,0.00,93,weatherlink.com 1.10,2013-07-19 14:34:00,
2013-07-19 10:49:00,80.6,77.0,30.09,WSW,256,0.0,-999.0,87,-99.99,,,0.01,97,weatherlink.com 1.10,2013-07-19 14:49:00,
2013-07-19 11:04:00,81.6,77.0,30.09,West,271,0.0,-999.0,86,-99.99,,,0.01,123,weatherlink.com 1.10,2013-07-19 15:04:00,
2013-07-19 11:19:00,82.5,77.0,30.09,WSW,243,2.0,-999.0,82,-99.99,,,0.01,248,weatherlink.com 1.10,2013-07-19 15:19:00,
2013-07-19 11:34:00,83.2,78.0,30.09,SSW,213,0.0,-999.0,83,-99.99,,,0.01,886,weatherlink.com 1.10,2013-07-19 15:34:00,
2013-07-19 11:49:00,83.8,77.0,30.09,WNW,295,0.0,-999.0,80,-99.99,,,0.01,814,weatherlink.com 1.10,2013-07-19 15:49:00,
2013-07-19 12:04:00,84.3,78.0,30.09,West,273,0.0,-999.0,81,-99.99,,,0.01,846,weatherlink.com 1.10,2013-07-19 16:04:00,
2013-07-19 12:19:00,85.2,78.0,30.08,NNE,12,0.0,-999.0,78,-99.99,,,0.01,905,weatherlink.com 1.10,2013-07-19 16:19:00,
2013-07-19 12:34:00,85.8,77.0,30.08,North,355,0.0,-999.0,75,-99.99,,,0.01,912,weatherlink.com 1.10,2013-07-19 16:34:00,
2013-07-19 12:49:00,86.3,78.0,30.07,NNW,344,0.0,-999.0,77,-99.99,,,0.01,930,weatherlink.com 1.10,2013-07-19 16:49:00,
2013-07-19 13:04:00,86.4,78.0,30.07,NNE,16,0.0,-999.0,75,-99.99,,,0.01,926,weatherlink.com 1.10,2013-07-19 17:04:00,
2013-07-19 13:19:00,86.8,77.0,30.07,WNW,302,0.0,-999.0,73,-99.99,,,0.01,241,weatherlink.com 1.10,2013-07-19 17:19:00,
2013-07-19 13:34:00,86.0,77.0,30.06,SSE,155,0.0,-999.0,75,-99.99,,,0.01,232,weatherlink.com 1.10,2013-07-19 17:34:00,
2013-07-19 13:49:00,87.4,77.0,30.05,SW,222,0.0,-999.0,72,-99.99,,,0.01,942,weatherlink.com 1.10,2013-07-19 17:49:00,
2013-07-19 14:04:00,87.7,77.0,30.05,WNW,298,0.0,-999.0,71,-99.99,,,0.01,930,weatherlink.com 1.10,2013-07-19 18:04:00,
2013-07-19 14:19:00,88.1,77.0,30.05,SSW,193,0.0,-999.0,70,-99.99,,,0.01,877,weatherlink.com 1.10,2013-07-19 18:19:00,
2013-07-19 14:34:00,88.3,77.0,30.04,NNW,333,0.0,-999.0,70,-99.99,,,0.01,921,weatherlink.com 1.10,2013-07-19 18:34:00,
2013-07-19 14:49:00,88.6,79.0,30.03,West,262,0.0,-999.0,72,-99.99,,,0.01,974,weatherlink.com 1.10,2013-07-19 18:49:00,
2013-07-19 15:04:00,88.7,77.0,30.02,West,280,0.0,-999.0,69,-99.99,,,0.01,919,weatherlink.com 1.10,2013-07-19 19:04:00,
2013-07-19 15:19:00,89.1,77.0,30.02,West,280,0.0,-999.0,67,-99.99,,,0.01,882,weatherlink.com 1.10,2013-07-19 19:19:00,
2013-07-19 15:34:00,88.6,78.0,30.00,WSW,254,0.0,-999.0,70,-99.99,,,0.01,863,weatherlink.com 1.10,2013-07-19 19:34:00,
2013-07-19 15:49:00,89.5,77.0,30.00,SW,225,0.0,-999.0,66,-99.99,,,0.01,831,weatherlink.com 1.10,2013-07-19 19:49:00,
2013-07-19 16:04:00,89.7,78.0,29.99,SW,224,0.0,-999.0,68,-99.99,,,0.01,807,weatherlink.com 1.10,2013-07-19 20:04:00,
2013-07-19 16:19:00,89.0,78.0,29.98,SW,223,0.0,-999.0,70,-99.99,,,0.01,791,weatherlink.com 1.10,2013-07-19 20:19:00,
2013-07-19 16:34:00,89.6,78.0,29.99,SW,219,0.0,-999.0,69,-99.99,,,0.01,701,weatherlink.com 1.10,2013-07-19 20:34:00,
2013-07-19 16:49:00,89.1,78.0,29.99,East,85,0.0,-999.0,70,-99.99,,,0.01,626,weatherlink.com 1.10,2013-07-19 20:49:00,
2013-07-19 17:04:00,88.2,78.0,29.99,NW,318,0.0,-999.0,72,-99.99,,,0.01,232,weatherlink.com 1.10,2013-07-19 21:04:00,
2013-07-19 17:19:00,87.0,78.0,29.98,NW,318,0.0,-999.0,75,-99.99,,,0.01,478,weatherlink.com 1.10,2013-07-19 21:19:00,
2013-07-19 17:34:00,87.9,79.0,29.98,NW,318,0.0,-999.0,75,-99.99,,,0.01,577,weatherlink.com 1.10,2013-07-19 21:34:00,
2013-07-19 17:49:00,88.6,78.0,29.97,South,190,0.0,-999.0,71,-99.99,,,0.01,580,weatherlink.com 1.10,2013-07-19 21:49:00,
2013-07-19 18:04:00,89.8,79.0,29.97,West,273,0.0,-999.0,70,-99.99,,,0.01,513,weatherlink.com 1.10,2013-07-19 22:04:00,
2013-07-19 18:19:00,89.7,78.0,29.97,West,263,0.0,-999.0,69,-99.99,,,0.01,438,weatherlink.com 1.10,2013-07-19 22:19:00,
2013-07-19 18:34:00,89.5,77.0,29.97,ESE,119,0.0,-999.0,66,-99.99,,,0.01,292,weatherlink.com 1.10,2013-07-19 22:34:00,
2013-07-19 18:49:00,88.9,77.0,29.97,SE,140,0.0,-999.0,68,-99.99,,,0.01,195,weatherlink.com 1.10,2013-07-19 22:49:00,
2013-07-19 19:04:00,88.4,77.0,29.97,WNW,285,0.0,-999.0,69,-99.99,,,0.01,193,weatherlink.com 1.10,2013-07-19 23:04:00,
2013-07-19 19:19:00,88.3,78.0,29.98,WNW,286,0.0,-999.0,72,-99.99,,,0.01,185,weatherlink.com 1.10,2013-07-19 23:19:00,
2013-07-19 19:34:00,88.5,78.0,29.97,WNW,286,0.0,-999.0,72,-99.99,,,0.01,128,weatherlink.com 1.10,2013-07-19 23:34:00,
2013-07-19 19:49:00,88.1,78.0,29.98,WSW,252,0.0,-999.0,71,-99.99,,,0.01,37,weatherlink.com 1.10,2013-07-19 23:49:00,
2013-07-19 20:04:00,87.4,77.0,29.98,West,268,0.0,-999.0,72,-99.99,,,0.01,19,weatherlink.com 1.10,2013-07-20 00:04:00,
2013-07-19 20:19:00,86.5,77.0,29.97,West,268,0.0,-999.0,73,-99.99,,,0.01,12,weatherlink.com 1.10,2013-07-20 00:19:00,
2013-07-19 20:34:00,85.4,77.0,29.98,West,268,0.0,-999.0,75,-99.99,,,0.01,0,weatherlink.com 1.10,2013-07-20 00:34:00,
2013-07-19 20:49:00,84.2,76.0,29.97,West,269,0.0,-999.0,77,-99.99,,,0.01,0,weatherlink.com 1.10,2013-07-20 00:49:00,
2013-07-19 21:04:00,83.2,76.0,29.97,West,268,0.0,-999.0,79,-99.99,,,0.01,0,weatherlink.com 1.10,2013-07-20 01:04:00,
2013-07-19 21:19:00,82.4,76.0,29.97,West,269,0.0,-999.0,81,-99.99,,,0.01,0,weatherlink.com 1.10,2013-07-20 01:19:00,
2013-07-19 21:34:00,81.9,76.0,29.99,West,269,0.0,-999.0,82,-99.99,,,0.01,0,weatherlink.com 1.10,2013-07-20 01:34:00,
2013-07-19 21:49:00,81.3,76.0,30.00,West,269,0.0,-999.0,84,-99.99,,,0.01,0,weatherlink.com 1.10,2013-07-20 01:49:00,
2013-07-19 22:04:00,80.9,76.0,30.01,West,268,0.0,-999.0,85,-99.99,,,0.01,0,weatherlink.com 1.10,2013-07-20 02:04:00,
2013-07-19 22:19:00,80.5,76.0,30.02,West,269,0.0,-999.0,86,-99.99,,,0.01,0,weatherlink.com 1.10,2013-07-20 02:19:00,
2013-07-19 22:34:00,80.0,76.0,30.02,West,269,0.0,-999.0,87,-99.99,,,0.01,0,weatherlink.com 1.10,2013-07-20 02:34:00,
2013-07-19 22:49:00,79.7,76.0,30.02,West,268,0.0,-999.0,87,-99.99,,,0.01,0,weatherlink.com 1.10,2013-07-20 02:49:00,
2013-07-19 23:04:00,79.4,75.0,30.02,West,269,0.0,-999.0,87,-99.99,,,0.01,0,weatherlink.com 1.10,2013-07-20 03:04:00,
2013-07-19 23:19:00,79.2,75.0,30.02,West,269,0.0,-999.0,87,-99.99,,,0.01,0,weatherlink.com 1.10,2013-07-20 03:19:00,
2013-07-19 23:34:00,79.1,75.0,30.02,West,269,0.0,-999.0,87,-99.99,,,0.01,0,weatherlink.com 1.10,2013-07-20 03:34:00,
2013-07-19 23:49:00,79.0,75.0,30.01,West,268,0.0,-999.0,88,-99.99,,,0.01,0,weatherlink.com 1.10,2013-07-20 03:49:00,